Voltar ao catálogo

STARLINK-32791

AtivoComunicaçõesVLEO
NORAD 62530·PAYLOAD·🇺🇸 United States

Lançado Jan 8, 2025 de Cape Canaveral Space Force Station

Loading…

Próximas Passagens (próximas 24 horas)

TLE

AtualizadoSource: CelesTrak SupGP

Época: Sep 15, 2026, 02:46 UTC

1 62530C 25004V   26258.11576389 -.00040498  00000+0 -14678-2 0  2582
2 62530  42.9993 230.0159 0001341 263.3823 315.9951 15.27576163    17

Acompanhe STARLINK-32791 em tempo real com AllMySat

Download on the App Store